Erzurum, Turkey

12:17 AM +03 on October 19, 2017 (GMT +0300)
Erzurum

Weather History for LTCE - December, 2012

Change the Weather History Date:

Wednesday, December 19, 2012

  Actual Average Record
Temperature  
Mean Temperature 32 °F -  
Max Temperature 37 °F 27 °F 44 °F (2006)
Min Temperature 27 °F 14 °F -31 °F (2016)
Degree Days  
Heating Degree Days 33    
Moisture  
Dew Point 29 °F    
Average Humidity 83    
Maximum Humidity 100    
Minimum Humidity 62    
Precipitation  
Precipitation 0.08 in 0.03 in - ()
Sea Level Pressure  
Sea Level Pressure 30.04 in    
Wind  
Wind Speed 5 mph ()    
Max Wind Speed 12 mph    
Max Gust Speed -    
Visibility 5.1 miles    
Events Snow    
Averages and records for this station are not official NWS values.
T = Trace of Precipitation, MM = Missing Value Source: Averaged Metar Reports

Daily Weather History Graph

Daily Weather History Graph

Search for Another Location

Airport or City:

Trip Planner

Search our weather history database for the weather conditions in past years. The results will help you decide how hot, cold, wet, or windy it might be!

Date:

Astronomy

Dec. 19, 2012 Rise Set
Actual Time 6:32 AM EET 3:52 PM EET
Civil Twilight 6:01 AM EET 4:23 PM EET
Nautical Twilight 5:27 AM EET 4:57 PM EET
Astronomical Twilight 4:54 AM EET 5:30 PM EET
Moon 10:31 AM EET (12/19) 10:58 PM EET (12/19)
Length of Visible Light 10h 21m
Length of Day
9h 20m
Waxing Crescent, 42% of the Moon is Illuminated
Dec 19
Waxing Crescent
Dec 20
First Quarter
Dec 28
Full
Jan 5
Last Quarter
Jan 11
New

Hourly Weather History & Observations

Time (EET) Temp. Windchill Dew Point Humidity Pressure Visibility Wind Dir Wind Speed Gust Speed Precip Events Conditions
12:20 AM 30.2 °F - 28.4 °F 93% 30.06 in 2.2 mi Variable 2.3 mph - N/A   Overcast
12:50 AM 32.0 °F 27.5 °F 28.4 °F 87% 30.06 in - Variable 4.6 mph - N/A Snow Light Snow
1:20 AM 32.0 °F 27.5 °F 28.4 °F 87% 30.06 in 3.7 mi South 4.6 mph - N/A Snow Light Snow
1:50 AM 33.8 °F 27.7 °F 26.6 °F 75% 30.04 in 3.7 mi Variable 6.9 mph - N/A Snow Light Snow
2:00 AM 34 °F - 26 °F 62%  in 4 mi SW 6.9 mph - - Snow Light Snow
2:20 AM 33.8 °F 27.7 °F 26.6 °F 75% 30.04 in 3.7 mi South 6.9 mph - N/A   Mostly Cloudy
2:50 AM 32.0 °F 28.7 °F 26.6 °F 80% 30.04 in 3.7 mi Variable 3.5 mph - N/A   Mostly Cloudy
3:20 AM 32.0 °F 27.5 °F 26.6 °F 80% 30.04 in 3.7 mi Variable 4.6 mph - N/A   Mostly Cloudy
3:50 AM 30.2 °F 23.4 °F 26.6 °F 86% 30.04 in 3.7 mi SSE 6.9 mph - N/A   Mostly Cloudy
4:20 AM 32.0 °F 28.7 °F 26.6 °F 80% 30.04 in 3.7 mi Variable 3.5 mph - N/A   Mostly Cloudy
4:50 AM 32.0 °F 28.7 °F 28.4 °F 87% 30.04 in 3.7 mi South 3.5 mph - N/A   Mostly Cloudy
5:20 AM 33.8 °F 29.6 °F 28.4 °F 81% 30.04 in - SSW 4.6 mph - N/A Snow Light Snow
5:50 AM 32.0 °F 28.7 °F 26.6 °F 80% 30.04 in 2.8 mi SSE 3.5 mph - N/A Snow Light Snow
6:20 AM 30.2 °F 25.4 °F 26.6 °F 86% 30.04 in 4.3 mi ENE 4.6 mph - N/A   Mostly Cloudy
6:50 AM 32.0 °F 28.7 °F 28.4 °F 87% 30.06 in 5.0 mi South 3.5 mph - N/A   Mostly Cloudy
7:20 AM 32.0 °F 28.7 °F 28.4 °F 87% 30.06 in 5.6 mi East 3.5 mph - N/A   Mostly Cloudy
7:50 AM 33.8 °F 30.8 °F 28.4 °F 81% 30.06 in 5.0 mi SE 3.5 mph - N/A   Mostly Cloudy
8:00 AM 33 °F - 28 °F 74%  in 5 mi NE 1.2 mph - -   Mist
8:20 AM 35.6 °F 31.7 °F 28.4 °F 75% 30.06 in 5.0 mi NW 4.6 mph - N/A   Mostly Cloudy
8:50 AM 35.6 °F 29.9 °F 30.2 °F 81% 30.06 in 5.0 mi West 6.9 mph - N/A   Mostly Cloudy
9:20 AM 35.6 °F 29.9 °F 30.2 °F 81% 30.06 in 5.0 mi West 6.9 mph - N/A   Mostly Cloudy
9:50 AM 35.6 °F 31.7 °F 30.2 °F 81% 30.06 in 5.0 mi Variable 4.6 mph - N/A   Mostly Cloudy
10:20 AM 37.4 °F - 30.2 °F 75% 30.06 in 5.0 mi Variable 1.2 mph - N/A   Mostly Cloudy
10:50 AM 37.4 °F 32.8 °F 30.2 °F 75% 30.04 in 5.0 mi West 5.8 mph - N/A   Mostly Cloudy
11:20 AM 37.4 °F 30.8 °F 28.4 °F 70% 30.04 in 5.0 mi WSW 9.2 mph - N/A   Mostly Cloudy
11:50 AM 37.4 °F 32.1 °F 28.4 °F 70% 30.04 in 5.0 mi WSW 6.9 mph - N/A   Mostly Cloudy
12:20 PM 35.6 °F 28.6 °F 30.2 °F 81% 30.04 in 5.0 mi WSW 9.2 mph - N/A   Mostly Cloudy
12:50 PM 35.6 °F 29.9 °F 30.2 °F 81% 30.04 in 6.2 mi SW 6.9 mph - N/A   Mostly Cloudy
1:20 PM 37.4 °F 30.8 °F 30.2 °F 75% 30.04 in 6.2 mi SW 9.2 mph - N/A   Mostly Cloudy
1:50 PM 35.6 °F 28.0 °F 30.2 °F 81% 30.04 in 6.2 mi West 10.4 mph - N/A   Mostly Cloudy
2:00 PM 36 °F - 31 °F 74%  in 12 mi West 10.4 mph - -   Partly Cloudy
2:20 PM 35.6 °F 28.6 °F 30.2 °F 81% 30.04 in 6.2 mi WSW 9.2 mph - N/A   Mostly Cloudy
2:50 PM 37.4 °F 32.1 °F 30.2 °F 75% 30.04 in 6.2 mi SW 6.9 mph - N/A   Mostly Cloudy
3:20 PM 35.6 °F 31.7 °F 30.2 °F 81% 30.04 in 6.2 mi SSW 4.6 mph - N/A   Mostly Cloudy
3:50 PM 35.6 °F 32.8 °F 30.2 °F 81% 30.04 in 6.2 mi NNW 3.5 mph - N/A   Mostly Cloudy
4:20 PM 35.6 °F 32.8 °F 30.2 °F 81% 30.04 in 6.2 mi Variable 3.5 mph - N/A   Mostly Cloudy
4:50 PM 35.6 °F 31.7 °F 30.2 °F 81% 30.04 in 6.2 mi North 4.6 mph - N/A   Mostly Cloudy
5:20 PM 33.8 °F 27.0 °F 30.2 °F 87% 30.04 in 6.2 mi NNE 8.1 mph - N/A   Mostly Cloudy
5:50 PM 33.8 °F 28.6 °F 30.2 °F 87% 30.04 in 6.2 mi NNE 5.8 mph - N/A   Mostly Cloudy
6:20 PM 33.8 °F 29.6 °F 30.2 °F 87% 30.04 in 6.2 mi NE 4.6 mph - N/A   Mostly Cloudy
6:50 PM 33.8 °F 25.8 °F 30.2 °F 87% 30.04 in 6.2 mi NE 10.4 mph - N/A   Mostly Cloudy
7:20 PM 35.6 °F 28.6 °F 30.2 °F 81% 30.04 in 6.2 mi ENE 9.2 mph - N/A   Mostly Cloudy
7:50 PM 33.8 °F 27.7 °F 30.2 °F 87% 30.04 in 6.2 mi NE 6.9 mph - N/A   Mostly Cloudy
8:00 PM 33 °F - 31 °F 90%  in 12 mi NE 6.9 mph - -   Partly Cloudy
8:20 PM 33.8 °F 25.3 °F 32.0 °F 93% 30.01 in 6.2 mi ENE 11.5 mph - N/A Snow Light Snow
8:50 PM 33.8 °F 25.8 °F 32.0 °F 93% 30.01 in 6.2 mi East 10.4 mph - N/A Snow Light Snow
9:20 PM 32.0 °F 23.0 °F 32.0 °F 100% 30.01 in 6.2 mi ENE 11.5 mph - N/A   Mostly Cloudy
9:50 PM 33.8 °F 25.3 °F 32.0 °F 93% 30.01 in 3.7 mi ENE 11.5 mph - N/A Snow Light Snow
10:20 PM 32.0 °F 27.5 °F 32.0 °F 100% 30.01 in 1.6 mi SE 4.6 mph - N/A Snow Light Snow
10:50 PM 32.0 °F 28.7 °F 32.0 °F 100% 30.01 in 1.1 mi East 3.5 mph - N/A Snow Light Snow
11:20 PM 32.0 °F 26.4 °F 32.0 °F 100% 30.01 in 1.4 mi East 5.8 mph - N/A Snow Light Snow
11:50 PM 32.0 °F 26.4 °F 32.0 °F 100% 29.98 in 1.2 mi ENE 5.8 mph - N/A Snow Light Snow